Other Public Products
Issued by NWS Charleston, SC

Current Version | Previous Version | Graphics & Text | Print | Product List | Glossary On
Versions: 1 2 3 4 5 6 7 8 9 10 11 12 13 14 15 16 17 18 19 20 21 22 23 24 25 26 27 28 29 30 31 32 33 34 35 36 37 38 39 40 41 42 43 44 45 46 47 48 49 50
000
FPUS82 KCHS 270912
OPUCHS

TEST...KCHS/KSAV Gateway Observations...TEST
National Weather Service Charleston SC
500 AM EDT THU JUL 27 2017

NOTE: "fair" indicates few or no clouds below 12,000 feet with no
significant weather and/or obstructions to visibility.

SCZ050-WAZ558-NCZ071-TXZ119-213-PAZ071-DCZ001-FLZ074-172-MI076-
NYZ176-178-MAZ016-IL014-TNZ027-NJZ106-GAZ044-MD014-271000-

...Gateway Observations for Charleston International...

CITY           SKY/WX    TMP DP  RH WIND       PRES   REMARKS
Chas Airport   MOCLDY    74  73  97 CALM      30.05R FOG
Seattle        PTCLDY    60  55  83 SW5       30.08R
Charlotte      CLOUDY    76  74  93 S6        30.10R
Dallas DFW     MOCLDY    84  71  65 S15       29.98S
Dallas Love    MOCLDY    84  70  62 S6        30.00R
Philladelphia  MOCLDY    67  62  84 S7        30.06F
Wash National  MOCLDY    73  69  87 S8        30.05S
Baltimore      CLOUDY    72  70  93 VRB3      30.05S
Miami          PTCLDY    81  76  84 N3        30.02S
Detroit        CLOUDY    70  67  90 CALM      29.96F
Newark         MOCLDY    65  60  84 S6        30.05F
Laguardia      CLOUDY    67  61  81 SW9       30.04F
J F K          CLOUDY    67  62  84 SW9       30.06F
Boston Logan   MOCLDY    63  59  87 SW10      30.05S
Ft. Lauderdale PTCLDY    82  75  79 E3        30.01F
Chicago O`Hare CLOUDY    74  70  87 N8        29.90R
Chicago Midway CLOUDY    74  73  97 SW6       29.90S FOG
Houston Bush   PTCLDY    79  74  84 S3        30.04S
Houston Hobby  PTCLDY    80  74  81 CALM      30.03F
Nashville      MOCLDY    80  72  76 SW3       30.00F
Atlanta        PTCLDY    74  68  81 SE5       30.08S

$$

GAZ044-118-TXZ119-213-NCZ071-DCZ001-MDZ014-506-PAZ021-071-NJZ106-
NYZ176-178-MAZ106-OHZ011-021-055-MIZ076-KYZ091-ILZ014-INZ047-
MNZ060-ONZ431-271000-

...Gateway Observations for Savannah International...

CITY           SKY/WX    TMP DP  RH WIND       PRES   REMARKS
Savannah Arpt  CLOUDY   N/A N/A N/A NE6       30.04S
Atlanta        PTCLDY    74  68  81 SE5       30.08S
Charlotte      CLOUDY    76  74  93 S6        30.10R
Dallas DFW     MOCLDY    84  71  65 S15       29.98S
Houston Bush   PTCLDY    79  74  84 S3        30.04S
Wash National  MOCLDY    73  69  87 S8        30.05S
Wash Dulles    MOCLDY    69  66  90 CALM      30.05R
Baltimore      CLOUDY    72  70  93 VRB3      30.05S
Philadelphia   MOCLDY    67  62  84 S7        30.06F
Newark         MOCLDY    65  60  84 S6        30.05F
Laguardia      CLOUDY    67  61  81 SW9       30.04F
J F K          CLOUDY    67  62  84 SW9       30.06F
Boston         MOCLDY    63  59  87 SW10      30.05S
Pittsburg      CLOUDY    65  63  93 CALM      30.01S
Akron          CLOUDY    67  62  84 CALM      30.00S
Cleveland      CLOUDY    68  64  87 SE3       29.99F
Cincinnati     CLOUDY    73  71  93 S5        29.96S
Columbus       CLOUDY    66  63  90 CALM      29.98S
Detroit        CLOUDY    70  67  90 CALM      29.96F
Chicago O`Hare CLOUDY    74  70  87 N8        29.90R
Minneapolis    CLEAR     68  61  78 N7        30.04S
Indianapolis   CLOUDY    75  72  90 W8        29.94F
Toronto Canada LGT RAIN  66  64  94 W7        29.95

$$




USA.gov is the U.S. government's official web portal to all federal, state and local government web resources and services.